Time,TemperatureF,DewpointF,PressureIn,WindDirection,WindDirectionDegrees,WindSpeedMPH,WindSpeedGustMPH,Humidity,HourlyPrecipIn,Conditions,Clouds,dailyrainin,SoftwareType,DateUTC
2013-06-19 00:01:00,66.0,46.0,29.67,SSE,153,1.0,6.0,48,0.00,,,0.00,,2013-06-19 06:01:00,
2013-06-19 00:11:00,66.0,46.0,29.67,SE,142,2.0,8.0,49,0.00,,,0.00,,2013-06-19 06:11:00,
2013-06-19 00:22:00,66.0,46.0,29.67,SE,142,2.0,8.0,49,0.00,,,0.00,,2013-06-19 06:22:00,
2013-06-19 00:33:00,65.0,45.0,29.68,SSE,164,3.0,13.0,49,0.00,,,0.00,,2013-06-19 06:33:00,
2013-06-19 00:42:00,65.0,45.0,29.69,South,181,4.0,10.0,49,0.00,,,0.00,,2013-06-19 06:42:00,
2013-06-19 00:52:00,65.0,45.0,29.69,South,181,4.0,10.0,49,0.00,,,0.00,,2013-06-19 06:52:00,
2013-06-19 01:01:00,65.0,46.0,29.69,SSE,165,2.0,10.0,51,0.00,,,0.00,,2013-06-19 07:01:00,
2013-06-19 01:11:00,64.0,47.0,29.70,ESE,111,3.0,9.0,53,0.00,,,0.00,,2013-06-19 07:11:00,
2013-06-19 01:22:00,64.0,47.0,29.70,ESE,111,3.0,9.0,53,0.00,,,0.00,,2013-06-19 07:22:00,
2013-06-19 01:33:00,63.0,47.0,29.70,South,189,4.0,9.0,55,0.00,,,0.00,,2013-06-19 07:33:00,
2013-06-19 01:43:00,63.0,48.0,29.70,South,182,2.0,6.0,57,0.00,,,0.00,,2013-06-19 07:43:00,
2013-06-19 01:53:00,63.0,48.0,29.70,South,182,2.0,6.0,57,0.00,,,0.00,,2013-06-19 07:53:00,
2013-06-19 02:02:00,62.0,48.0,29.70,South,176,2.0,7.0,60,0.00,,,0.00,,2013-06-19 08:02:00,
2013-06-19 02:11:00,62.0,49.0,29.70,South,185,0.0,15.0,63,0.00,,,0.00,,2013-06-19 08:11:00,
2013-06-19 02:22:00,62.0,49.0,29.70,South,185,0.0,15.0,63,0.00,,,0.00,,2013-06-19 08:22:00,
2013-06-19 02:33:00,61.0,49.0,29.70,SSW,205,1.0,8.0,65,0.00,,,0.00,,2013-06-19 08:33:00,
2013-06-19 02:43:00,61.0,50.0,29.69,SW,215,2.0,8.0,67,0.00,,,0.00,,2013-06-19 08:43:00,
2013-06-19 02:54:00,61.0,50.0,29.69,SW,215,2.0,8.0,67,0.00,,,0.00,,2013-06-19 08:54:00,
2013-06-19 03:02:00,60.0,49.0,29.70,SW,225,1.0,5.0,68,0.00,,,0.00,,2013-06-19 09:02:00,
2013-06-19 03:11:00,60.0,49.0,29.69,SSW,195,0.0,5.0,68,0.00,,,0.00,,2013-06-19 09:11:00,
2013-06-19 03:22:00,60.0,49.0,29.69,SSW,195,0.0,5.0,68,0.00,,,0.00,,2013-06-19 09:22:00,
2013-06-19 03:34:00,60.0,50.0,29.68,South,182,0.0,1.0,69,0.00,,,0.00,,2013-06-19 09:34:00,
2013-06-19 03:43:00,59.0,49.0,29.67,SSE,161,0.0,4.0,70,0.00,,,0.00,,2013-06-19 09:43:00,
2013-06-19 03:53:00,59.0,49.0,29.67,SSE,161,0.0,4.0,70,0.00,,,0.00,,2013-06-19 09:53:00,
2013-06-19 04:01:00,59.0,50.0,29.67,SSE,161,0.0,1.0,71,0.00,,,0.00,,2013-06-19 10:01:00,
2013-06-19 04:11:00,59.0,50.0,29.67,SSE,161,0.0,1.0,71,0.00,,,0.00,,2013-06-19 10:11:00,
2013-06-19 04:22:00,58.0,49.0,29.67,SSW,205,0.0,2.0,71,0.00,,,0.00,,2013-06-19 10:22:00,
2013-06-19 04:33:00,58.0,49.0,29.66,South,184,0.0,3.0,73,0.00,,,0.00,,2013-06-19 10:33:00,
2013-06-19 04:42:00,58.0,49.0,29.66,South,184,0.0,3.0,73,0.00,,,0.00,,2013-06-19 10:42:00,
2013-06-19 04:53:00,58.0,49.0,29.66,South,171,0.0,4.0,73,0.00,,,0.00,,2013-06-19 10:53:00,
2013-06-19 05:02:00,57.0,49.0,29.66,South,177,0.0,3.0,74,0.00,,,0.00,,2013-06-19 11:02:00,
2013-06-19 05:11:00,57.0,49.0,29.66,South,177,0.0,3.0,74,0.00,,,0.00,,2013-06-19 11:11:00,
2013-06-19 05:22:00,57.0,49.0,29.66,South,184,0.0,4.0,75,0.00,,,0.00,,2013-06-19 11:22:00,
2013-06-19 05:33:00,57.0,49.0,29.66,South,179,0.0,3.0,75,0.00,,,0.00,,2013-06-19 11:33:00,
2013-06-19 05:42:00,57.0,49.0,29.66,South,179,0.0,3.0,75,0.00,,,0.00,,2013-06-19 11:42:00,
2013-06-19 05:54:00,56.0,49.0,29.66,South,177,0.0,0.0,76,0.00,,,0.00,,2013-06-19 11:54:00,
2013-06-19 06:01:00,56.0,49.0,29.66,South,174,0.0,2.0,77,0.00,,,0.00,,2013-06-19 12:01:00,
2013-06-19 06:12:00,56.0,49.0,29.66,South,174,0.0,2.0,77,0.00,,,0.00,,2013-06-19 12:12:00,
2013-06-19 06:22:00,56.0,49.0,29.66,South,173,0.0,4.0,78,0.00,,,0.00,,2013-06-19 12:22:00,
2013-06-19 06:34:00,56.0,49.0,29.66,South,173,0.0,0.0,78,0.00,,,0.00,,2013-06-19 12:34:00,
2013-06-19 06:44:00,56.0,49.0,29.66,South,173,0.0,0.0,78,0.00,,,0.00,,2013-06-19 12:44:00,
2013-06-19 06:53:00,57.0,50.0,29.66,South,185,0.0,3.0,78,0.00,,,0.00,,2013-06-19 12:53:00,
2013-06-19 07:02:00,57.0,50.0,29.66,SSE,165,0.0,3.0,78,0.00,,,0.00,,2013-06-19 13:02:00,
2013-06-19 07:11:00,57.0,50.0,29.66,SSE,165,0.0,3.0,78,0.00,,,0.00,,2013-06-19 13:11:00,
2013-06-19 07:22:00,58.0,51.0,29.65,South,172,0.0,3.0,77,0.00,,,0.00,,2013-06-19 13:22:00,
2013-06-19 07:33:00,59.0,51.0,29.65,South,172,0.0,2.0,74,0.00,,,0.00,,2013-06-19 13:33:00,
2013-06-19 07:42:00,59.0,51.0,29.65,South,172,0.0,2.0,74,0.00,,,0.00,,2013-06-19 13:42:00,
2013-06-19 07:54:00,60.0,51.0,29.64,South,172,0.0,1.0,72,0.00,,,0.00,,2013-06-19 13:54:00,
2013-06-19 08:02:00,61.0,50.0,29.64,WSW,242,0.0,2.0,68,0.00,,,0.00,,2013-06-19 14:02:00,
2013-06-19 08:11:00,61.0,50.0,29.64,WSW,242,0.0,2.0,68,0.00,,,0.00,,2013-06-19 14:11:00,
2013-06-19 08:22:00,62.0,51.0,29.63,SSW,209,0.0,2.0,67,0.00,,,0.00,,2013-06-19 14:22:00,
2013-06-19 08:33:00,64.0,51.0,29.62,WSW,240,0.0,7.0,63,0.00,,,0.00,,2013-06-19 14:33:00,
2013-06-19 08:43:00,64.0,51.0,29.62,WSW,240,0.0,7.0,63,0.00,,,0.00,,2013-06-19 14:43:00,
2013-06-19 08:53:00,66.0,51.0,29.62,South,180,0.0,4.0,59,0.00,,,0.00,,2013-06-19 14:53:00,
2013-06-19 09:01:00,68.0,51.0,29.60,South,169,1.0,4.0,54,0.00,,,0.00,,2013-06-19 15:01:00,
2013-06-19 09:11:00,68.0,51.0,29.60,South,169,1.0,4.0,54,0.00,,,0.00,,2013-06-19 15:11:00,
2013-06-19 09:22:00,69.0,50.0,29.60,SSE,153,0.0,3.0,51,0.00,,,0.00,,2013-06-19 15:22:00,
2013-06-19 09:33:00,71.0,50.0,29.59,West,261,0.0,4.0,47,0.00,,,0.00,,2013-06-19 15:33:00,
2013-06-19 09:42:00,71.0,50.0,29.59,West,261,0.0,4.0,47,0.00,,,0.00,,2013-06-19 15:42:00,
2013-06-19 09:53:00,73.0,50.0,29.58,SSW,210,1.0,6.0,45,0.00,,,0.00,,2013-06-19 15:53:00,
2013-06-19 10:01:00,75.0,50.0,29.57,SW,222,0.0,5.0,42,0.00,,,0.00,,2013-06-19 16:01:00,
2013-06-19 10:11:00,75.0,50.0,29.57,SW,222,0.0,5.0,42,0.00,,,0.00,,2013-06-19 16:11:00,
2013-06-19 10:22:00,78.0,48.0,29.56,South,190,1.0,7.0,35,0.00,,,0.00,,2013-06-19 16:22:00,
2013-06-19 10:43:00,79.0,47.0,29.55,SW,223,1.0,5.0,32,0.00,,,0.00,,2013-06-19 16:43:00,
2013-06-19 10:53:00,80.0,50.0,29.54,South,184,0.0,9.0,35,0.00,,,0.00,,2013-06-19 16:53:00,
2013-06-19 11:02:00,82.0,47.0,29.53,SSE,151,2.0,7.0,29,0.00,,,0.00,,2013-06-19 17:02:00,
2013-06-19 11:12:00,82.0,47.0,29.53,SSE,151,2.0,7.0,29,0.00,,,0.00,,2013-06-19 17:12:00,
2013-06-19 11:22:00,83.0,47.0,29.53,SSE,165,3.0,7.0,28,0.00,,,0.00,,2013-06-19 17:22:00,
2013-06-19 11:34:00,85.0,44.0,29.52,SSE,158,2.0,6.0,24,0.00,,,0.00,,2013-06-19 17:34:00,
2013-06-19 11:43:00,85.0,44.0,29.52,SSE,158,2.0,6.0,24,0.00,,,0.00,,2013-06-19 17:43:00,
2013-06-19 11:53:00,87.0,40.0,29.51,SE,144,2.0,8.0,19,0.00,,,0.00,,2013-06-19 17:53:00,
2013-06-19 12:01:00,88.0,36.0,29.50,SSE,157,1.0,7.0,16,0.00,,,0.00,,2013-06-19 18:01:00,
2013-06-19 12:11:00,88.0,36.0,29.50,SSE,157,1.0,7.0,16,0.00,,,0.00,,2013-06-19 18:11:00,
2013-06-19 12:24:00,89.0,32.0,29.49,SSE,147,1.0,7.0,13,0.00,,,0.00,,2013-06-19 18:24:00,
2013-06-19 12:33:00,89.0,35.0,29.49,SSW,207,2.0,13.0,15,0.00,,,0.00,,2013-06-19 18:33:00,
2013-06-19 12:44:00,89.0,35.0,29.49,SSW,207,2.0,13.0,15,0.00,,,0.00,,2013-06-19 18:44:00,
2013-06-19 12:53:00,90.0,36.0,29.48,SSE,154,2.0,11.0,15,0.00,,,0.00,,2013-06-19 18:53:00,
2013-06-19 13:01:00,91.0,27.0,29.47,SW,235,2.0,9.0,10,0.00,,,0.00,,2013-06-19 19:01:00,
2013-06-19 13:11:00,91.0,27.0,29.47,SW,235,2.0,9.0,10,0.00,,,0.00,,2013-06-19 19:11:00,
2013-06-19 13:22:00,91.0,24.0,29.46,South,178,3.0,11.0,9,0.00,,,0.00,,2013-06-19 19:22:00,
2013-06-19 13:32:00,91.0,33.0,29.45,SW,216,2.0,8.0,13,0.00,,,0.00,,2013-06-19 19:32:00,
2013-06-19 13:43:00,91.0,33.0,29.45,SW,216,2.0,8.0,13,0.00,,,0.00,,2013-06-19 19:43:00,
2013-06-19 13:53:00,91.0,33.0,29.44,ESE,119,2.0,14.0,13,0.00,,,0.00,,2013-06-19 19:53:00,
2013-06-19 14:11:00,91.0,35.0,29.44,SSE,159,2.0,9.0,14,0.00,,,0.00,,2013-06-19 20:11:00,
2013-06-19 14:22:00,92.0,30.0,29.43,SSW,194,2.0,10.0,11,0.00,,,0.00,,2013-06-19 20:22:00,
2013-06-19 14:33:00,92.0,28.0,29.42,South,191,1.0,9.0,10,0.00,,,0.00,,2013-06-19 20:33:00,
2013-06-19 14:42:00,92.0,28.0,29.42,South,191,1.0,9.0,10,0.00,,,0.00,,2013-06-19 20:42:00,
2013-06-19 15:22:00,92.0,34.0,29.39,SE,140,4.0,10.0,13,0.00,,,0.00,,2013-06-19 21:22:00,
2013-06-19 15:33:00,92.0,28.0,29.39,South,179,4.0,11.0,10,0.00,,,0.00,,2013-06-19 21:33:00,
2013-06-19 15:44:00,92.0,28.0,29.39,South,179,4.0,11.0,10,0.00,,,0.00,,2013-06-19 21:44:00,
2013-06-19 16:01:00,91.0,35.0,29.37,SE,133,5.0,13.0,14,0.00,,,0.00,,2013-06-19 22:01:00,
2013-06-19 16:11:00,91.0,35.0,29.37,SE,133,5.0,13.0,14,0.00,,,0.00,,2013-06-19 22:11:00,
2013-06-19 16:22:00,92.0,36.0,29.36,SE,140,3.0,12.0,14,0.00,,,0.00,,2013-06-19 22:22:00,
2013-06-19 16:34:00,92.0,36.0,29.35,SSE,165,3.0,12.0,14,0.00,,,0.00,,2013-06-19 22:34:00,
2013-06-19 16:43:00,92.0,36.0,29.35,SSE,165,3.0,12.0,14,0.00,,,0.00,,2013-06-19 22:43:00,
2013-06-19 16:53:00,92.0,34.0,29.35,ESE,121,4.0,10.0,13,0.00,,,0.00,,2013-06-19 22:53:00,
2013-06-19 17:02:00,92.0,34.0,29.33,SSE,149,4.0,10.0,13,0.00,,,0.00,,2013-06-19 23:02:00,
2013-06-19 17:12:00,92.0,34.0,29.33,SSE,149,4.0,10.0,13,0.00,,,0.00,,2013-06-19 23:12:00,
2013-06-19 17:23:00,93.0,31.0,29.32,WNW,301,1.0,7.0,11,0.00,,,0.00,,2013-06-19 23:23:00,
2013-06-19 17:33:00,94.0,27.0,29.33,South,188,1.0,7.0,9,0.00,,,0.00,,2013-06-19 23:33:00,
2013-06-19 17:43:00,94.0,27.0,29.33,South,188,1.0,7.0,9,0.00,,,0.00,,2013-06-19 23:43:00,
2013-06-19 17:52:00,94.0,29.0,29.33,South,191,1.0,5.0,10,0.00,,,0.00,,2013-06-19 23:52:00,
2013-06-19 18:01:00,95.0,27.0,29.33,WSW,257,0.0,1.0,9,0.00,,,0.00,,2013-06-20 00:01:00,
2013-06-19 18:12:00,95.0,27.0,29.33,WSW,257,0.0,1.0,9,0.00,,,0.00,,2013-06-20 00:12:00,
2013-06-19 18:22:00,96.0,25.0,29.33,West,259,3.0,7.0,8,0.00,,,0.00,,2013-06-20 00:22:00,
2013-06-19 18:33:00,95.0,30.0,29.33,WSW,256,0.0,2.0,10,0.00,,,0.00,,2013-06-20 00:33:00,
2013-06-19 18:44:00,95.0,30.0,29.33,WSW,256,0.0,2.0,10,0.00,,,0.00,,2013-06-20 00:44:00,
2013-06-19 18:52:00,94.0,29.0,29.33,West,269,0.0,7.0,10,0.00,,,0.00,,2013-06-20 00:52:00,
2013-06-19 19:02:00,92.0,30.0,29.33,West,260,0.0,4.0,11,0.00,,,0.00,,2013-06-20 01:02:00,
2013-06-19 19:11:00,92.0,30.0,29.33,West,260,0.0,4.0,11,0.00,,,0.00,,2013-06-20 01:11:00,
2013-06-19 19:22:00,92.0,32.0,29.34,NW,305,1.0,3.0,12,0.00,,,0.00,,2013-06-20 01:22:00,
2013-06-19 19:33:00,91.0,35.0,29.34,SSW,209,0.0,0.0,14,0.00,,,0.00,,2013-06-20 01:33:00,
2013-06-19 19:44:00,91.0,35.0,29.34,SSW,209,0.0,0.0,14,0.00,,,0.00,,2013-06-20 01:44:00,
2013-06-19 19:52:00,91.0,35.0,29.34,SSW,209,0.0,0.0,14,0.00,,,0.00,,2013-06-20 01:52:00,
2013-06-19 20:02:00,89.0,34.0,29.34,SE,143,2.0,5.0,14,0.00,,,0.00,,2013-06-20 02:02:00,
2013-06-19 20:11:00,89.0,34.0,29.34,SE,143,2.0,5.0,14,0.00,,,0.00,,2013-06-20 02:11:00,
2013-06-19 20:52:00,84.0,50.0,29.35,SSE,161,2.0,12.0,31,0.00,,,0.00,,2013-06-20 02:52:00,
2013-06-19 21:02:00,83.0,50.0,29.35,South,172,2.0,12.0,32,0.00,,,0.00,,2013-06-20 03:02:00,
2013-06-19 21:11:00,83.0,50.0,29.35,South,172,2.0,12.0,32,0.00,,,0.00,,2013-06-20 03:11:00,
2013-06-19 21:22:00,82.0,50.0,29.35,SSW,199,0.0,5.0,33,0.00,,,0.00,,2013-06-20 03:22:00,
2013-06-19 21:33:00,81.0,50.0,29.35,South,175,0.0,9.0,34,0.00,,,0.00,,2013-06-20 03:33:00,
2013-06-19 21:43:00,81.0,50.0,29.35,South,175,0.0,9.0,34,0.00,,,0.00,,2013-06-20 03:43:00,
2013-06-19 21:54:00,80.0,51.0,29.36,South,190,0.0,3.0,36,0.00,,,0.00,,2013-06-20 03:54:00,
2013-06-19 22:01:00,79.0,50.0,29.36,SSW,194,0.0,3.0,37,0.00,,,0.00,,2013-06-20 04:01:00,
2013-06-19 22:11:00,79.0,50.0,29.36,SSW,194,0.0,3.0,37,0.00,,,0.00,,2013-06-20 04:11:00,
2013-06-19 22:22:00,78.0,52.0,29.36,SSW,194,0.0,0.0,40,0.00,,,0.00,,2013-06-20 04:22:00,
2013-06-19 22:33:00,76.0,51.0,29.38,SSW,201,0.0,0.0,42,0.00,,,0.00,,2013-06-20 04:33:00,
2013-06-19 22:43:00,76.0,51.0,29.38,SSW,201,0.0,0.0,42,0.00,,,0.00,,2013-06-20 04:43:00,
2013-06-19 22:54:00,75.0,53.0,29.38,SSW,202,0.0,0.0,46,0.00,,,0.00,,2013-06-20 04:54:00,
2013-06-19 23:02:00,73.0,52.0,29.38,SSW,202,0.0,0.0,47,0.00,,,0.00,,2013-06-20 05:02:00,
2013-06-19 23:12:00,73.0,52.0,29.38,SSW,202,0.0,0.0,47,0.00,,,0.00,,2013-06-20 05:12:00,
2013-06-19 23:22:00,72.0,52.0,29.38,SSW,202,0.0,0.0,50,0.00,,,0.00,,2013-06-20 05:22:00,
2013-06-19 23:33:00,71.0,51.0,29.39,SSW,202,0.0,0.0,49,0.00,,,0.00,,2013-06-20 05:33:00,
2013-06-19 23:44:00,71.0,51.0,29.39,SSW,202,0.0,0.0,49,0.00,,,0.00,,2013-06-20 05:44:00,
2013-06-19 23:53:00,70.0,50.0,29.39,SSW,202,0.0,0.0,50,0.00,,,0.00,,2013-06-20 05:53:00,